When you browse on this site, cookies collect data to enhance your experience and personalize the content and advertising you see.
Visit our Privacy Policy to learn more. By continuing to use the site, you agree to this use of cookies and data.
  • In Hungary
  • List of Countries
  • For 7 days
  • Water Temperature
  • Satellite Maps
  • Weather Map
  • News
  • Weather Widgets
  • user-avatar
    Login

    Hourly Weather Agrigento

    Today, 15 December, Saturday

    Time Temperature Precipitation Wind Pressure Humidity
    00:00 +12°C° 0 mm 2 mps 737 mmHg 87%
    01:00 +10°C° 0 mm 2 mps 737 mmHg 87%
    02:00 +10°C° 0 mm 2 mps 738 mmHg 87%
    03:00 +10°C° 0 mm 2 mps 738 mmHg 86%
    04:00 +10°C° 0 mm 3 mps 738 mmHg 86%
    05:00 +10°C° 0.1 mm 3 mps 738 mmHg 87%
    06:00 +10°C° 0.1 mm 3 mps 739 mmHg 88%
    07:00 +10°C° 0.1 mm 4 mps 739 mmHg 88%
    08:00 +11°C° 0.2 mm 4 mps 739 mmHg 86%
    09:00 +10°C° 0.2 mm 5 mps 740 mmHg 83%
    10:00 +11°C° 0.2 mm 6 mps 741 mmHg 80%
    11:00 +11°C° 0 mm 7 mps 741 mmHg 76%
    12:00 +12°C° 0 mm 7 mps 741 mmHg 71%
    13:00 +12°C° 0 mm 8 mps 741 mmHg 66%
    14:00 +11°C° 0 mm 8 mps 742 mmHg 66%
    15:00 +11°C° 0 mm 8 mps 742 mmHg 66%
    16:00 +10°C° 0 mm 8 mps 742 mmHg 66%
    17:00 +9°C° 0 mm 8 mps 742 mmHg 69%
    18:00 +8°C° 0 mm 7 mps 743 mmHg 72%
    19:00 +6°C° 0 mm 7 mps 743 mmHg 75%
    20:00 +6°C° 0 mm 7 mps 744 mmHg 76%
    21:00 +6°C° 0 mm 7 mps 744 mmHg 77%
    22:00 +6°C° 0 mm 7 mps 744 mmHg 78%
    23:00 +7°C° 0 mm 6 mps 744 mmHg 78%

    Tomorrow, 16 December, Sunday

    Time Temperature Precipitation Wind Pressure Humidity
    00:00 +5°C° 0 mm 6 mps 745 mmHg 79%
    01:00 +5°C° 0 mm 6 mps 745 mmHg 80%
    02:00 +5°C° 0 mm 6 mps 745 mmHg 80%
    03:00 +5°C° 0 mm 6 mps 745 mmHg 80%
    04:00 +6°C° 0 mm 5 mps 745 mmHg 80%
    05:00 +6°C° 0 mm 5 mps 745 mmHg 81%
    06:00 +6°C° 0 mm 5 mps 746 mmHg 82%
    07:00 +6°C° 0 mm 4 mps 746 mmHg 83%
    08:00 +7°C° 0 mm 4 mps 747 mmHg 76%
    09:00 +10°C° 0 mm 4 mps 747 mmHg 70%
    10:00 +11°C° 0 mm 4 mps 748 mmHg 64%
    11:00 +12°C° 0 mm 4 mps 748 mmHg 59%
    12:00 +13°C° 0 mm 4 mps 747 mmHg 55%
    13:00 +14°C° 0 mm 4 mps 747 mmHg 51%
    14:00 +14°C° 0 mm 4 mps 747 mmHg 54%
    15:00 +13°C° 0 mm 4 mps 747 mmHg 57%
    16:00 +13°C° 0 mm 4 mps 747 mmHg 61%
    17:00 +12°C° 0 mm 4 mps 747 mmHg 64%
    18:00 +11°C° 0 mm 4 mps 748 mmHg 68%
    19:00 +10°C° 0 mm 3 mps 748 mmHg 72%
    20:00 +10°C° 0 mm 3 mps 748 mmHg 73%
    21:00 +10°C° 0 mm 3 mps 748 mmHg 74%
    22:00 +10°C° 0 mm 3 mps 748 mmHg 74%
    23:00 +10°C° 0 mm 3 mps 748 mmHg 78%

    Day after tomorrow, 17 December, Monday

    Time Temperature Precipitation Wind Pressure Humidity
    00:00 +10°C° 0 mm 3 mps 748 mmHg 81%
    01:00 +10°C° 0 mm 2 mps 747 mmHg 85%
    02:00 +10°C° 0 mm 3 mps 747 mmHg 87%
    03:00 +11°C° 0 mm 3 mps 747 mmHg 90%
    04:00 +11°C° 0 mm 3 mps 746 mmHg 92%
    05:00 +11°C° 0 mm 3 mps 746 mmHg 92%
    06:00 +11°C° 0 mm 3 mps 746 mmHg 92%
    07:00 +11°C° 0 mm 3 mps 746 mmHg 92%
    08:00 +12°C° 0 mm 4 mps 746 mmHg 86%
    09:00 +14°C° 0 mm 5 mps 747 mmHg 80%
    10:00 +15°C° 0 mm 6 mps 747 mmHg 75%
    11:00 +16°C° 0 mm 7 mps 746 mmHg 73%
    12:00 +16°C° 0 mm 8 mps 746 mmHg 72%
    13:00 +17°C° 0 mm 9 mps 746 mmHg 71%
    14:00 +16°C° 0 mm 9 mps 746 mmHg 72%
    15:00 +15°C° 0 mm 9 mps 745 mmHg 73%
    16:00 +13°C° 0 mm 9 mps 745 mmHg 74%
    17:00 +13°C° 0.1 mm 9 mps 746 mmHg 76%
    18:00 +12°C° 0.1 mm 9 mps 746 mmHg 79%
    19:00 +11°C° 0.1 mm 9 mps 746 mmHg 81%
    20:00 +11°C° 0 mm 9 mps 746 mmHg 80%
    21:00 +10°C° 0 mm 9 mps 746 mmHg 80%
    22:00 +10°C° 0 mm 9 mps 747 mmHg 79%
    23:00 +8°C° 0 mm 9 mps 747 mmHg 78%

    18 December, Tuesday

    Time Temperature Precipitation Wind Pressure Humidity
    00:00 +8°C° 0 mm 9 mps 746 mmHg 76%
    01:00 +8°C° 0 mm 9 mps 746 mmHg 75%
    02:00 +8°C° 0.1 mm 9 mps 746 mmHg 76%
    03:00 +8°C° 0.1 mm 9 mps 746 mmHg 77%
    04:00 +8°C° 0.1 mm 9 mps 746 mmHg 78%
    05:00 +8°C° 0 mm 9 mps 746 mmHg 78%
    06:00 +8°C° 0 mm 9 mps 747 mmHg 78%
    07:00 +7°C° 0 mm 9 mps 747 mmHg 79%
    08:00 +8°C° 0 mm 9 mps 747 mmHg 74%
    09:00 +9°C° 0 mm 10 mps 748 mmHg 69%
    10:00 +11°C° 0 mm 11 mps 748 mmHg 64%
    11:00 +11°C° 0 mm 10 mps 748 mmHg 63%
    12:00 +11°C° 0 mm 10 mps 748 mmHg 63%
    13:00 +11°C° 0 mm 9 mps 748 mmHg 63%
    14:00 +11°C° 0 mm 9 mps 748 mmHg 64%
    15:00 +11°C° 0 mm 8 mps 748 mmHg 64%
    16:00 +10°C° 0 mm 7 mps 748 mmHg 65%
    17:00 +9°C° 0 mm 6 mps 749 mmHg 69%
    18:00 +8°C° 0 mm 5 mps 749 mmHg 73%
    19:00 +7°C° 0 mm 4 mps 749 mmHg 78%
    20:00 +7°C° 0 mm 4 mps 749 mmHg 80%
    21:00 +7°C° 0 mm 4 mps 750 mmHg 81%
    22:00 +7°C° 0 mm 4 mps 750 mmHg 83%
    23:00 +6°C° 0 mm 4 mps 750 mmHg 84%

    19 December, Wednesday

    Time Temperature Precipitation Wind Pressure Humidity
    00:00 +7°C° 0 mm 3 mps 750 mmHg 84%
    01:00 +7°C° 0 mm 3 mps 750 mmHg 85%
    02:00 +7°C° 0 mm 3 mps 750 mmHg 85%
    03:00 +7°C° 0 mm 3 mps 750 mmHg 84%
    04:00 +7°C° 0 mm 3 mps 750 mmHg 84%
    05:00 +7°C° 0 mm 3 mps 750 mmHg 82%
    06:00 +7°C° 0 mm 2 mps 750 mmHg 80%
    07:00 +7°C° 0 mm 2 mps 750 mmHg 78%
    08:00 +8°C° 0 mm 2 mps 751 mmHg 70%
    09:00 +11°C° 0 mm 1 mps 751 mmHg 62%
    10:00 +13°C° 0 mm 1 mps 751 mmHg 53%
    11:00 +14°C° 0 mm 1 mps 751 mmHg 51%
    12:00 +15°C° 0 mm 1 mps 750 mmHg 48%
    13:00 +15°C° 0 mm 2 mps 750 mmHg 46%
    14:00 +15°C° 0 mm 2 mps 750 mmHg 50%
    15:00 +14°C° 0 mm 2 mps 750 mmHg 55%
    16:00 +13°C° 0 mm 1 mps 749 mmHg 59%
    17:00 +12°C° 0 mm 1 mps 749 mmHg 64%
    18:00 +11°C° 0 mm 1 mps 749 mmHg 68%
    19:00 +10°C° 0 mm 1 mps 749 mmHg 73%
    20:00 +9°C° 0 mm 2 mps 749 mmHg 73%
    21:00 +9°C° 0 mm 2 mps 749 mmHg 73%
    22:00 +8°C° 0 mm 2 mps 749 mmHg 73%
    23:00 +9°C° 0 mm 2 mps 749 mmHg 74%

    20 December, Thursday

    Time Temperature Precipitation Wind Pressure Humidity
    00:00 +9°C° 0 mm 2 mps 749 mmHg 75%
    01:00 +10°C° 0 mm 2 mps 749 mmHg 76%
    02:00 +10°C° 0 mm 2 mps 748 mmHg 80%
    03:00 +10°C° 0 mm 2 mps 748 mmHg 83%
    04:00 +10°C° 0 mm 2 mps 748 mmHg 87%
    05:00 +10°C° 0 mm 2 mps 748 mmHg 88%
    06:00 +10°C° 0 mm 2 mps 748 mmHg 89%
    07:00 +10°C° 0 mm 2 mps 748 mmHg 90%
    08:00 +12°C° 0 mm 2 mps 748 mmHg 86%
    09:00 +12°C° 0 mm 3 mps 748 mmHg 83%
    10:00 +14°C° 0 mm 3 mps 748 mmHg 79%
    11:00 +13°C° 0.5 mm 4 mps 748 mmHg 81%
    12:00 +13°C° 0.5 mm 5 mps 748 mmHg 83%
    13:00 +13°C° 0.5 mm 6 mps 748 mmHg 85%
    14:00 +13°C° 0.2 mm 6 mps 748 mmHg 83%
    15:00 +13°C° 0.2 mm 6 mps 748 mmHg 82%
    16:00 +13°C° 0.2 mm 6 mps 748 mmHg 80%
    17:00 +12°C° 0 mm 5 mps 748 mmHg 83%
    18:00 +10°C° 0 mm 5 mps 748 mmHg 85%
    19:00 +9°C° 0 mm 5 mps 749 mmHg 88%
    20:00 +9°C° 0 mm 5 mps 749 mmHg 88%
    21:00 +10°C° 0 mm 4 mps 749 mmHg 87%
    22:00 +8°C° 0 mm 4 mps 749 mmHg 87%
    23:00 +8°C° 0 mm 4 mps 749 mmHg 87%
    Show more